Kezdőlap
METAR-TAF:

METAR-TAF

Repülőterek :

Ortonville Municipal Airport (Martinson Field)

Ortonville, Minnesota, Amerikai Egyesült Államok

földrajzi szélesség: 45-18-20N, földrajzi hosszúság: 096-25-28W, magasság: 335 m

Jelenlegi meteorológiai megfigyelések

A jelentés 14 perccel ezelõtt készült, 15:35 UTC
Északi szél 6 kt
Hőmérséklet 22°C
Páratartalom 73%
Légköri nyomás 1014 hPa
Látótávolság: 16.1 km
Derült ég

METAR: KVVV 161535Z AUTO 35006KT 10SM CLR 22/17 A2995 RMK AO2

Idő: 10:49 (15:49 UTC)


TAF: hiányzik

Meteorológiai megfigyelések és előrejelzések több, mint 4000 repülőtéren (METAR és TAF jelentéseket).

A térképen piros és sárga pontok jelzik az elérhető meteorológiai állomásokat.

Mozgassa az egeret a pont fölött, hogy megjelenjen az állomás neve.

Azután kattintson az időjárási megfigyelések és előrejelzések megtekintéséhez.

A térkép megváltoztatása: kattintson a fekete keresztel jelölt zöld gombra ráközelítéshez, a vonallal jelölt zöld gombra távolításhoz, vagy a zöld nyilakra a szomszédos térképek eléréséhez.


METAR-TAF: